STARLINK-11632, 63108

Orbit data source: Space-Track

STARLINK-11632, 63108 is a payload satellite owned by SpaceX/Seattle (US) in LEO that was launched on Thu, 27 Feb 2025 UTC via an FALCON 9 launch vehicle from the Air Force Eastern Test Range (AFETR). Payload-class satellites include a variety of spacecraft equipped with specific instruments for various scientific and technological missions. These include communications satellites like Starlink; space stations such as the ISS; scientific satellites like the Hubble; Earth observation satellites from companies like Planet Labs, Umbra, and HawkEye 360; GPS; miniature CubeSats for education and research; and military/defense satellites.

Loading next visibility...
Identifier
63108, 2025-039E
Orbit
LEO
Country
Flag of USUS
Related business
Manufacturer
SpaceX/Seattle
Mission
Operational Commercial Communications
Bus & Motor
STARLINK V2MD, Unknown motor
Mass
960 kg wet, ~910 kg dry
Launch date (UTC)
2025-02-27 (8 months ago)
Launch vehicle
FALCON 9
Launch site
Air Force Eastern Test Range (AFETR)
Object type
Payload
Rocket body
Debris
Shape & HBR
Box + 2 Pan, 18.1 m
Radar Cross Section
36.964 m², Large (>1 m²)

Expand to show TLE details & history
Last TLE update: 1 day ago

TLE from 1 day ago
0 STARLINK-11632
1 63108U 25039E   25305.25011992  .00283459  00000-0  21303-2 0  9993
2 63108  42.9993 291.1815 0000672 164.6998 195.3890 15.70926384 39418
Epoch: 2025-11-01T06:00Z
TLE epoch observation values (Epoch: 2025-11-01T06:00:10.361Z)
Latitude
-0.00001°
Longitude
160.35542°
Altitude
356.455 km
Speed
7.697 km/s
True Right ascension
19h 24m 43s
True Declination
0° 00' 00"
Sunlit
Object was in daylight at epoch
Visualization orbit readout
Latitude
Unknown
Longitude
Unknown
Altitude
Unknown
Speed
Unknown
Apparent Right ascension
Unknown
Apparent Declination
Unknown
Sunlit
N/A
Visualization observer readout
Local Sidereal Time
02:53:07
Azimuth
Unknown
Elevation
Unknown
Doppler factor
Unknown
Orbital elements
Apogee altitude
358.683 km
Perigee altitude
357.777 km
Semi-major axis
6,736.367 km
Eccentricity
0.00007
Inclination
42.9993°
RAAN
291.1815°
Arg. of periapsis
164.6998°
True anomaly
195.38696°
Mean anomaly
195.389°
Eccentric anomaly
195.38798°
Mean motion
3.92559 °/min
Orbital period
91.71 mins
BSTAR
0.0021303
Loading maneuver chart data...
Computing Atmospheric mass density...
Loading historical data...
Loading historical data...
Loading historical data...
Loading historical data...
Loading historical data...
Loading historical data...
Loading historical data...

Documentation

Showing up to 5 results
|